This demonstration page uses our WeatherBlox Daily Observations layout. Learn more.

Left ArrowRight Arrow

44.8408, -93.29828

Hourly Observations for July 27, 2022

Temp ( °F °C ) Dew Point ( °F °C ) Humidity (%) Winds ( mph kmh ) Pressure ( in mb ) Visibility ( mi km ) Precip ( " mm )
12:19 am 00:19 Cloudy 65 18.3 61 16.1 87 87 SW 9 15 29.84 1011 10 16 0.00 0.00
12:53 am 00:53 Mostly Cloudy 65 18.3 62 16.7 90 90 WSW 8 13 29.85 1011 10 16 0.00 0.00
1:06 am 01:06 Cloudy 65 18.3 62 16.7 90 90 WSW 6 9 29.84 1011 10 16 0.00 0.00
1:53 am 01:53 Mostly Clear 65 18.3 63 17.2 93 93 WSW 5 7 29.84 1010 10 16 0.00 0.00
2:06 am 02:06 Partly Cloudy 65 18.3 63 17.2 93 93 WSW 5 7 29.83 1010 10 16 0.00 0.00
2:30 am 02:30 Mostly Cloudy 65 18.3 63 17.2 93 93 WSW 6 9 29.83 1010 10 16 0.00 0.00
2:53 am 02:53 Cloudy 66 18.9 63 17.2 90 90 WSW 5 7 29.83 1010 10 16 0.00 0.00
3:53 am 03:53 Partly Cloudy 65 18.3 63 17.2 93 93 W 5 7 29.84 1011 10 16 0.00 0.00
4:00 am 04:00 Mostly Cloudy 65 18.3 63 17.2 93 93 WSW 5 7 29.83 1010 10 16 0.00 0.00
4:20 am 04:20 Mostly Clear 64 17.8 62 16.7 93 93 W 3 6 29.84 1010 10 16 0.00 0.00
4:53 am 04:53 Clear 63 17.2 61 16.1 93 93 WNW 5 7 29.84 1011 10 16 0.00 0.00
5:53 am 05:53 Clear 63 17.2 61 16.1 93 93 Calm 29.85 1011 10 16 0.00 0.00
6:53 am 06:53 Mostly Sunny 64 17.8 60 15.6 87 87 SW 3 6 29.86 1011 8 13 0.00 0.00
7:14 am 07:14 Mostly Sunny 65 18.3 61 16.1 87 87 VRB 5 7 29.86 1011 9 14 0.00 0.00
7:53 am 07:53 Partly Cloudy 66 18.9 61 16.1 84 84 WSW 5 7 29.88 1012 10 16 0.00 0.00
8:53 am 08:53 Partly Cloudy 69 20.6 60 15.6 73 73 SW 6 9 29.87 1012 10 16 0.00 0.00
9:53 am 09:53 Mostly Cloudy 72 22.2 60 15.6 66 66 WSW 8 13 29.87 1011 10 16 0.00 0.00
10:53 am 10:53 Mostly Sunny 76 24.4 59 15 56 56 VRB 7 11 29.86 1011 10 16 0.00 0.00
11:53 am 11:53 Mostly Sunny 79 26.1 54 12.2 42 42 W 15 24 29.86 1011 10 16 0.00 0.00
12:53 pm 12:53 Mostly Sunny 82 27.8 53 11.7 37 37 WNW 15 24 29.84 1011 10 16 0.00 0.00
1:53 pm 13:53 Mostly Sunny 84 28.9 51 10.6 32 32 W 13 20 29.83 1010 10 16 0.00 0.00
2:53 pm 14:53 Partly Cloudy 84 28.9 52 11.1 33 33 W 17 28 29.82 1010 10 16 0.00 0.00
3:53 pm 15:53 Mostly Cloudy 82 27.8 54 12.2 38 38 W 20 31 29.81 1009 10 16 0.00 0.00
4:53 pm 16:53 Mostly Cloudy 80 26.7 55 12.8 42 42 NW 17 28 29.81 1010 10 16 0.00 0.00
5:53 pm 17:53 Mostly Sunny 81 27.2 49 9.4 33 33 WNW 21 33 29.81 1009 10 16 0.00 0.00
6:53 pm 18:53 Partly Cloudy 79 26.1 51 10.6 38 38 NW 15 24 29.82 1010 10 16 0.00 0.00
7:53 pm 19:53 Mostly Sunny 77 25 47 8.3 35 35 NW 10 17 29.83 1010 10 16 0.00 0.00
8:53 pm 20:53 Partly Cloudy 73 22.8 46 7.8 38 38 WNW 10 17 29.83 1010 10 16 0.00 0.00
9:53 pm 21:53 Partly Cloudy 72 22.2 48 8.9 43 43 WNW 7 11 29.85 1011 10 16 0.00 0.00
10:53 pm 22:53 Mostly Cloudy 71 21.7 50 10 47 47 NW 10 17 29.85 1011 10 16 0.00 0.00
11:53 pm 23:53 Mostly Cloudy 71 21.7 51 10.6 49 49 NW 12 19 29.86 1011 10 16 0.00 0.00

Powered by AerisWeather